Greensboro, NC

1:36 PM EST on February 23, 2017 (GMT -0500)
Piedmont Triad International

Weather History for KGSO - October, 2012

Change the Weather History Date:

Tuesday, October 30, 2012

  Actual Average Record
Temperature  
Mean Temperature 44 °F 55 °F  
Max Temperature 49 °F 67 °F 84 °F (2016)
Min Temperature 39 °F 44 °F 25 °F (1965)
Degree Days  
Heating Degree Days 21 10  
Month to date heating degree days 189 192  
Since 1 July heating degree days 206 223  
Cooling Degree Days 0 0  
Month to date cooling degree days 27 35  
Year to date cooling degree days 1623 1482  
Moisture  
Dew Point 28 °F    
Average Humidity 54    
Maximum Humidity 65    
Minimum Humidity 42    
Precipitation  
Precipitation T in 0.10 in 3.19 in (1949)
Month to date precipitation 2.44 3.02  
Year to date precipitation 33.82 36.00  
Sea Level Pressure  
Sea Level Pressure 29.42 in    
Wind  
Wind Speed 18 mph (West)    
Max Wind Speed 33 mph    
Max Gust Speed 44 mph    
Visibility 10 miles    
Events Rain    
T = Trace of Precipitation, MM = Missing Value Source: NWS Daily Summary

Daily Weather History Graph

Daily Weather History Graph

Search for Another Location

Airport or City:

Trip Planner

Search our weather history database for the weather conditions in past years. The results will help you decide how hot, cold, wet, or windy it might be!

Date:

Astronomy

Oct. 30, 2012 Rise Set
Actual Time 7:40 AM EDT 6:25 PM EDT
Civil Twilight 7:14 AM EDT 6:51 PM EDT
Nautical Twilight 6:44 AM EDT 7:22 PM EDT
Astronomical Twilight 6:14 AM EDT 7:51 PM EDT
Moon 6:56 PM EDT (10/30) 8:23 AM EDT (10/30)
Length of Visible Light 11h 37m
Length of Day
10h 44m
Full, 99% of the Moon is Illuminated
Oct 30
Full
Nov 6
Last Quarter
Nov 13
New
Nov 20
First Quarter
Nov 28
Full

Hourly Weather History & Observations

Time (EDT) Temp. Windchill Dew Point Humidity Pressure Visibility Wind Dir Wind Speed Gust Speed Precip Events Conditions
12:54 AM 44.1 °F 35.7 °F 27.0 °F 51% 29.33 in 10.0 mi West 20.7 mph 40.3 mph N/A   Overcast
1:54 AM 44.1 °F 34.6 °F 27.0 °F 51% 29.31 in 10.0 mi West 26.5 mph 40.3 mph N/A   Overcast
2:54 AM 43.0 °F 33.3 °F 26.1 °F 51% 29.31 in 10.0 mi West 25.3 mph 39.1 mph N/A   Overcast
3:54 AM 43.0 °F 34.0 °F 26.1 °F 51% 29.31 in 10.0 mi WNW 21.9 mph 29.9 mph N/A   Overcast
4:54 AM 43.0 °F 33.8 °F 26.1 °F 51% 29.32 in 10.0 mi WNW 23.0 mph 26.5 mph N/A   Overcast
5:54 AM 42.1 °F 32.8 °F 28.0 °F 58% 29.33 in 10.0 mi West 21.9 mph 42.6 mph 0.00 in Rain Light Rain
6:54 AM 42.1 °F 32.6 °F 28.9 °F 60% 29.35 in 10.0 mi West 23.0 mph 43.7 mph 0.00 in Rain Light Rain
7:29 AM 42.8 °F 34.0 °F 28.4 °F 57% 29.35 in 10.0 mi West 20.7 mph 29.9 mph 0.00 in   Overcast
7:54 AM 43.0 °F 35.1 °F 28.0 °F 56% 29.36 in 10.0 mi WNW 17.3 mph 24.2 mph 0.00 in   Overcast
8:54 AM 44.1 °F 35.7 °F 26.1 °F 49% 29.38 in 10.0 mi West 20.7 mph 35.7 mph N/A   Overcast
9:54 AM 44.1 °F 37.1 °F 26.1 °F 49% 29.38 in 10.0 mi West 15.0 mph 25.3 mph 0.00 in   Overcast
10:54 AM 46.0 °F 37.6 °F 26.1 °F 46% 29.40 in 10.0 mi West 24.2 mph 33.4 mph N/A   Mostly Cloudy
11:54 AM 46.9 °F - 26.1 °F 44% 29.41 in 10.0 mi West 25.3 mph 29.9 mph N/A   Scattered Clouds
12:54 PM 48.0 °F - 27.0 °F 44% 29.42 in 10.0 mi WNW 16.1 mph 27.6 mph N/A   Overcast
1:54 PM 46.9 °F - 27.0 °F 46% 29.43 in 10.0 mi WNW 18.4 mph 34.5 mph N/A   Mostly Cloudy
2:54 PM 48.0 °F - 26.1 °F 42% 29.43 in 10.0 mi West 18.4 mph 32.2 mph N/A   Overcast
3:54 PM 48.0 °F - 27.0 °F 44% 29.45 in 10.0 mi West 24.2 mph 29.9 mph N/A   Overcast
4:54 PM 46.9 °F - 28.0 °F 48% 29.48 in 10.0 mi West 17.3 mph 23.0 mph N/A   Overcast
5:54 PM 46.0 °F 40.2 °F 28.9 °F 51% 29.51 in 10.0 mi West 12.7 mph 21.9 mph N/A   Overcast
6:54 PM 45.0 °F 38.5 °F 30.0 °F 56% 29.54 in 10.0 mi West 13.8 mph - N/A   Overcast
7:54 PM 45.0 °F 38.2 °F 28.9 °F 53% 29.56 in 10.0 mi West 15.0 mph - N/A   Mostly Cloudy
8:54 PM 44.1 °F 37.7 °F 28.9 °F 55% 29.57 in 10.0 mi West 12.7 mph - N/A   Mostly Cloudy
9:54 PM 43.0 °F 36.4 °F 28.9 °F 58% 29.59 in 10.0 mi West 12.7 mph - N/A   Scattered Clouds
10:54 PM 43.0 °F 37.7 °F 30.0 °F 60% 29.60 in 10.0 mi West 9.2 mph - N/A   Mostly Cloudy
11:54 PM 41.0 °F 34.7 °F 30.9 °F 67% 29.60 in 10.0 mi West 10.4 mph - N/A   Mostly Cloudy